| time (UTC) | temp C | wind direction | speed KPH | gust KPH | rain 1hr cm | rain 24hr cm | rain mn cm | humidity % | barometer mb |
| 20260502152339 | 11 | 139 | 0.0 | 3.2 | 0.00 | 0.00 | 0.00 | 68 | 1021.0 |
| 20260502152053 | 10 | 138 | 0.0 | 1.6 | 0.00 | 0.00 | 0.00 | 69 | 1020.8 |
| 20260502151111 | 10 | 138 | 0.0 | 3.2 | 0.00 | 0.00 | 0.00 | 69 | 1020.8 |
| 20260502150604 | 10 | 139 | 0.0 | 3.2 | 0.00 | 0.00 | 0.00 | 68 | 1021.0 |
| 20260502150330 | 10 | 139 | 0.0 | 3.2 | 0.00 | 0.00 | 0.00 | 68 | 1021.0 |
| 20260502130458 | 3 | 137 | 0.0 | 0.0 | 0.00 | 0.00 | 0.00 | 91 | 1020.7 |
| 20260502123429 | 3 | 137 | 0.0 | 0.0 | 0.00 | 0.00 | 0.00 | 90 | 1020.5 |
| 20260502123152 | 3 | 137 | 0.0 | 0.0 | 0.00 | 0.00 | 0.00 | 90 | 1020.5 |
| 20260502122656 | 3 | 137 | 0.0 | 0.0 | 0.00 | 0.00 | 0.00 | 89 | 1020.4 |
| 20260502121914 | 3 | 137 | 0.0 | 0.0 | 0.00 | 0.00 | 0.00 | 89 | 1020.4 |
| 20260502121410 | 3 | 137 | 0.0 | 0.0 | 0.00 | 0.00 | 0.00 | 89 | 1020.5 |
| 20260502120859 | 3 | 137 | 0.0 | 0.0 | 0.00 | 0.00 | 0.00 | 88 | 1020.5 |
| 20260502120358 | 3 | 137 | 0.0 | 0.0 | 0.00 | 0.00 | 0.00 | 88 | 1020.5 |
| 20260502115854 | 3 | 137 | 0.0 | 0.0 | 0.00 | 0.00 | 0.00 | 88 | 1020.5 |
| 20260502115337 | 3 | 137 | 0.0 | 1.6 | 0.00 | 0.00 | 0.00 | 88 | 1020.4 |
| 20260502114835 | 3 | 137 | 0.0 | 1.6 | 0.00 | 0.00 | 0.00 | 87 | 1020.5 |
| 20260502114334 | 3 | 137 | 0.0 | 0.0 | 0.00 | 0.00 | 0.00 | 87 | 1020.5 |
| 20260502113835 | 3 | 137 | 0.0 | 0.0 | 0.00 | 0.00 | 0.00 | 87 | 1020.5 |
| 20260502113332 | 3 | 137 | 0.0 | 0.0 | 0.00 | 0.00 | 0.00 | 87 | 1020.5 |
| 20260502112821 | 3 | 137 | 0.0 | 3.2 | 0.00 | 0.00 | 0.00 | 87 | 1020.5 |
| 20260502112321 | 3 | 137 | 1.6 | 3.2 | 0.00 | 0.00 | 0.00 | 87 | 1020.4 |
| 20260502111816 | 3 | 137 | 0.0 | 3.2 | 0.00 | 0.00 | 0.00 | 87 | 1020.4 |
| 20260502111316 | 3 | 137 | 0.0 | 0.0 | 0.00 | 0.00 | 0.00 | 87 | 1020.5 |
| 20260502110816 | 4 | 137 | 0.0 | 0.0 | 0.00 | 0.00 | 0.00 | 87 | 1020.4 |
| 20260502110313 | 4 | 137 | 0.0 | 3.2 | 0.00 | 0.00 | 0.00 | 92 | 1020.4 |
| 20260502105809 | 4 | 137 | 0.0 | 3.2 | 0.00 | 0.00 | 0.00 | 87 | 1020.4 |
| 20260502105251 | 4 | 137 | 0.0 | 0.0 | 0.00 | 0.00 | 0.00 | 87 | 1020.3 |
| 20260502104751 | 4 | 137 | 0.0 | 0.0 | 0.00 | 0.00 | 0.00 | 87 | 1020.4 |
| 20260502104254 | 4 | 137 | 0.0 | 0.0 | 0.00 | 0.00 | 0.00 | 92 | 1020.3 |
| 20260502103751 | 4 | 137 | 0.0 | 0.0 | 0.00 | 0.00 | 0.00 | 87 | 1020.3 |
| 20260502103252 | 4 | 137 | 0.0 | 0.0 | 0.00 | 0.00 | 0.00 | 87 | 1020.2 |
| 20260502102753 | 4 | 137 | 0.0 | 0.0 | 0.00 | 0.00 | 0.00 | 87 | 1020.2 |
| 20260502102248 | 4 | 137 | 0.0 | 0.0 | 0.00 | 0.00 | 0.00 | 86 | 1020.2 |
| 20260502102012 | 4 | 137 | 0.0 | 0.0 | 0.00 | 0.00 | 0.00 | 86 | 1020.1 |
| 20260502101233 | 4 | 137 | 0.0 | 0.0 | 0.00 | 0.00 | 0.00 | 86 | 1019.9 |
| 20260502100733 | 4 | 137 | 0.0 | 0.0 | 0.00 | 0.00 | 0.00 | 87 | 1019.8 |
| 20260502100224 | 4 | 137 | 0.0 | 0.0 | 0.00 | 0.00 | 0.00 | 87 | 1019.8 |
| 20260502091209 | 5 | 137 | 0.0 | 0.0 | 0.00 | 0.00 | 0.00 | 84 | 1019.5 |
| 20260502090930 | 5 | 137 | 0.0 | 0.0 | 0.00 | 0.00 | 0.00 | 84 | 1019.7 |
| 20260502090421 | 5 | 137 | 0.0 | 1.6 | 0.00 | 0.00 | 0.00 | 84 | 1019.5 |
| 20260502071050 | 6 | 137 | 0.0 | 0.0 | 0.00 | 0.00 | 0.00 | 80 | 1018.9 |
| 20260502070548 | 6 | 137 | 0.0 | 0.0 | 0.00 | 0.00 | 0.00 | 80 | 1018.9 |
| 20260502070038 | 6 | 137 | 0.0 | 0.0 | 0.00 | 0.00 | 0.00 | 80 | 1018.9 |
| 20260502065536 | 7 | 137 | 0.0 | 0.0 | 0.00 | 0.00 | 0.00 | 80 | 1018.9 |
| 20260502065028 | 7 | 137 | 0.0 | 0.0 | 0.00 | 0.00 | 0.00 | 79 | 1018.9 |
| 20260502064523 | 7 | 137 | 0.0 | 0.0 | 0.00 | 0.00 | 0.00 | 80 | 1018.9 |
| 20260502064018 | 7 | 137 | 0.0 | 0.0 | 0.00 | 0.00 | 0.00 | 80 | 1018.9 |
| 20260502063519 | 7 | 137 | 0.0 | 0.0 | 0.00 | 0.00 | 0.00 | 80 | 1018.8 |
| 20260502063502 | 7 | 137 | 0.0 | 0.0 | 0.00 | 0.00 | 0.00 | 79 | 1018.8 |
| 20260502062508 | 7 | 137 | 0.0 | 0.0 | 0.00 | 0.00 | 0.00 | 78 | 1018.8 |
| 20260502062008 | 7 | 137 | 0.0 | 0.0 | 0.00 | 0.00 | 0.00 | 78 | 1018.7 |
| 20260502061509 | 7 | 137 | 0.0 | 0.0 | 0.00 | 0.00 | 0.00 | 78 | 1018.6 |
| 20260502061239 | 7 | 137 | 0.0 | 0.0 | 0.00 | 0.00 | 0.00 | 78 | 1018.7 |
| 20260502060509 | 7 | 137 | 0.0 | 0.0 | 0.00 | 0.00 | 0.00 | 78 | 1018.6 |
| 20260502055959 | 7 | 137 | 0.0 | 0.0 | 0.00 | 0.00 | 0.00 | 76 | 1018.5 |
| 20260502055457 | 8 | 137 | 0.0 | 0.0 | 0.00 | 0.00 | 0.00 | 76 | 1018.5 |
| 20260502054944 | 8 | 137 | 0.0 | 0.0 | 0.00 | 0.00 | 0.00 | 76 | 1018.5 |
| 20260502054445 | 8 | 137 | 0.0 | 0.0 | 0.00 | 0.00 | 0.00 | 76 | 1018.5 |
| 20260502053934 | 8 | 137 | 0.0 | 0.0 | 0.00 | 0.00 | 0.00 | 75 | 1018.5 |
| 20260502053432 | 8 | 137 | 0.0 | 0.0 | 0.00 | 0.00 | 0.00 | 76 | 1018.4 |
| 20260502053153 | 8 | 137 | 0.0 | 0.0 | 0.00 | 0.00 | 0.00 | 76 | 1018.4 |
| 20260502052420 | 8 | 137 | 0.0 | 0.0 | 0.00 | 0.00 | 0.00 | 76 | 1018.3 |
| 20260502051920 | 8 | 137 | 0.0 | 1.6 | 0.00 | 0.00 | 0.00 | 74 | 1018.4 |
| 20260502051417 | 8 | 137 | 0.0 | 1.6 | 0.00 | 0.00 | 0.00 | 74 | 1018.3 |
| 20260502050918 | 8 | 137 | 0.0 | 1.6 | 0.00 | 0.00 | 0.00 | 76 | 1018.3 |
| 20260502050411 | 8 | 137 | 0.0 | 1.6 | 0.00 | 0.00 | 0.00 | 75 | 1018.3 |
| 20260502050134 | 8 | 137 | 0.0 | 0.0 | 0.00 | 0.00 | 0.00 | 75 | 1018.2 |
| 20260502045857 | 8 | 137 | 0.0 | 1.6 | 0.00 | 0.00 | 0.00 | 75 | 1018.2 |
| 20260502044912 | 9 | 137 | 0.0 | 1.6 | 0.00 | 0.00 | 0.00 | 76 | 1018.1 |
| 20260502044639 | 9 | 137 | 0.0 | 1.6 | 0.00 | 0.00 | 0.00 | 74 | 1018.2 |
| 20260502043856 | 9 | 137 | 0.0 | 1.6 | 0.00 | 0.00 | 0.00 | 73 | 1018.1 |
| 20260502043357 | 9 | 137 | 0.0 | 1.6 | 0.00 | 0.00 | 0.00 | 73 | 1018.1 |
| 20260502042851 | 9 | 137 | 0.0 | 4.8 | 0.00 | 0.00 | 0.00 | 76 | 1017.9 |
| 20260502042346 | 9 | 137 | 0.0 | 4.8 | 0.00 | 0.00 | 0.00 | 75 | 1017.9 |
| 20260502041844 | 9 | 137 | 0.0 | 0.0 | 0.00 | 0.00 | 0.00 | 75 | 1017.9 |
| 20260502041342 | 9 | 137 | 0.0 | 0.0 | 0.00 | 0.00 | 0.00 | 76 | 1018.1 |
| 20260502040842 | 9 | 137 | 0.0 | 1.6 | 0.00 | 0.00 | 0.00 | 75 | 1017.9 |
| 20260502040342 | 10 | 137 | 0.0 | 1.6 | 0.00 | 0.00 | 0.00 | 74 | 1017.9 |
| 20260502035340 | 10 | 137 | 0.0 | 3.2 | 0.00 | 0.00 | 0.00 | 72 | 1017.8 |
| 20260502034823 | 10 | 137 | 0.0 | 1.6 | 0.00 | 0.00 | 0.00 | 74 | 1017.8 |
| 20260502034322 | 10 | 137 | 0.0 | 3.2 | 0.00 | 0.00 | 0.00 | 73 | 1017.7 |
| 20260502034258 | 10 | 137 | 0.0 | 3.2 | 0.00 | 0.00 | 0.00 | 73 | 1017.6 |
| 20260502033307 | 10 | 137 | 0.0 | 3.2 | 0.00 | 0.00 | 0.00 | 72 | 1017.6 |
| 20260502032753 | 11 | 137 | 0.0 | 3.2 | 0.00 | 0.00 | 0.00 | 72 | 1017.5 |
| 20260502032247 | 11 | 137 | 0.0 | 1.6 | 0.00 | 0.00 | 0.00 | 72 | 1017.5 |
| 20260502031748 | 11 | 137 | 0.0 | 1.6 | 0.00 | 0.00 | 0.00 | 72 | 1017.4 |
| 20260502031243 | 11 | 137 | 0.0 | 1.6 | 0.00 | 0.00 | 0.00 | 71 | 1017.4 |
| 20260502030743 | 12 | 137 | 0.0 | 1.6 | 0.00 | 0.00 | 0.00 | 71 | 1017.3 |
| 20260502030239 | 12 | 137 | 0.0 | 1.6 | 0.00 | 0.00 | 0.00 | 70 | 1017.3 |
| 20260502025739 | 12 | 137 | 0.0 | 1.6 | 0.00 | 0.00 | 0.00 | 69 | 1017.3 |
| 20260502025238 | 13 | 137 | 0.0 | 3.2 | 0.00 | 0.00 | 0.00 | 68 | 1017.2 |
| 20260502024739 | 13 | 137 | 0.0 | 3.2 | 0.00 | 0.00 | 0.00 | 67 | 1017.2 |
| 20260502024242 | 13 | 137 | 0.0 | 3.2 | 0.00 | 0.00 | 0.00 | 67 | 1017.2 |
| 20260502023734 | 14 | 137 | 0.0 | 0.0 | 0.00 | 0.00 | 0.00 | 66 | 1017.0 |
| 20260502023234 | 14 | 137 | 0.0 | 0.0 | 0.00 | 0.00 | 0.00 | 64 | 1017.0 |
| 20260502022734 | 15 | 137 | 0.0 | 0.0 | 0.00 | 0.00 | 0.00 | 63 | 1016.9 |
| 20260502022230 | 15 | 137 | 0.0 | 0.0 | 0.00 | 0.00 | 0.00 | 63 | 1016.9 |
| 20260502021719 | 15 | 137 | 0.0 | 1.6 | 0.00 | 0.00 | 0.00 | 62 | 1016.9 |
| 20260502021209 | 16 | 137 | 0.0 | 1.6 | 0.00 | 0.00 | 0.00 | 61 | 1016.9 |
| 20260502020705 | 16 | 137 | 0.0 | 1.6 | 0.00 | 0.00 | 0.00 | 59 | 1016.9 |
| 20260502020205 | 16 | 137 | 0.0 | 1.6 | 0.00 | 0.00 | 0.00 | 59 | 1016.9 |
| 20260502015654 | 17 | 137 | 0.0 | 1.6 | 0.00 | 0.00 | 0.00 | 59 | 1016.8 |
| 20260502015156 | 17 | 137 | 0.0 | 3.2 | 0.00 | 0.00 | 0.00 | 54 | 1016.8 |
| 20260502014657 | 18 | 137 | 0.0 | 3.2 | 0.00 | 0.00 | 0.00 | 53 | 1016.8 |
| 20260502014419 | 18 | 137 | 0.0 | 1.6 | 0.00 | 0.00 | 0.00 | 52 | 1016.8 |
| 20260502013651 | 18 | 137 | 0.0 | 1.6 | 0.00 | 0.00 | 0.00 | 51 | 1016.7 |
| 20260502013151 | 18 | 137 | 0.0 | 0.0 | 0.00 | 0.00 | 0.00 | 49 | 1016.8 |
| 20260502012651 | 19 | 137 | 0.0 | 6.4 | 0.00 | 0.00 | 0.00 | 49 | 1016.8 |
| 20260502012151 | 19 | 137 | 1.6 | 6.4 | 0.00 | 0.00 | 0.00 | 41 | 1016.8 |
| 20260502011648 | 19 | 352 | 0.0 | 3.2 | 0.00 | 0.00 | 0.00 | 39 | 1016.8 |
| 20260502011147 | 19 | 352 | 0.0 | 3.2 | 0.00 | 0.00 | 0.00 | 50 | 1016.9 |
| 20260502010641 | 19 | 332 | 0.0 | 3.2 | 0.00 | 0.00 | 0.00 | 42 | 1016.9 |
| 20260502010142 | 19 | 333 | 0.0 | 3.2 | 0.00 | 0.00 | 0.00 | 40 | 1016.9 |
| 20260502005645 | 19 | 333 | 0.0 | 1.6 | 0.00 | 0.00 | 0.00 | 40 | 1017.0 |
| 20260502005137 | 19 | 333 | 0.0 | 0.0 | 0.00 | 0.00 | 0.00 | 45 | 1017.0 |
| 20260502004637 | 19 | 333 | 0.0 | 0.0 | 0.00 | 0.00 | 0.00 | 46 | 1017.0 |
| 20260502004137 | 19 | 333 | 0.0 | 0.0 | 0.00 | 0.00 | 0.00 | 43 | 1017.0 |
| 20260502003633 | 19 | 333 | 0.0 | 3.2 | 0.00 | 0.00 | 0.00 | 46 | 1017.0 |
| 20260502003133 | 19 | 333 | 0.0 | 3.2 | 0.00 | 0.00 | 0.00 | 40 | 1017.0 |
| 20260502002855 | 20 | 333 | 0.0 | 0.0 | 0.00 | 0.00 | 0.00 | 38 | 1017.0 |
| 20260502002350 | 20 | 333 | 0.0 | 0.0 | 0.00 | 0.00 | 0.00 | 41 | 1017.0 |
| 20260502002119 | 20 | 333 | 0.0 | 0.0 | 0.00 | 0.00 | 0.00 | 43 | 1017.0 |
| 20260502001130 | 20 | 333 | 0.0 | 6.4 | 0.00 | 0.00 | 0.00 | 38 | 1017.2 |
| 20260502000626 | 20 | 333 | 0.0 | 6.4 | 0.00 | 0.00 | 0.00 | 35 | 1017.2 |
| 20260502000118 | 20 | 250 | 0.0 | 3.2 | 0.00 | 0.00 | 0.00 | 35 | 1017.0 |
| 20260501235614 | 20 | 250 | 0.0 | 3.2 | 0.00 | 0.00 | 0.00 | 33 | 1017.2 |
| 20260501235116 | 20 | 338 | 0.0 | 3.2 | 0.00 | 0.00 | 0.00 | 37 | 1017.3 |
| 20260501234835 | 20 | 317 | 0.0 | 3.2 | 0.00 | 0.00 | 0.00 | 34 | 1017.2 |
| 20260501234109 | 20 | 315 | 0.0 | 3.2 | 0.00 | 0.00 | 0.00 | 33 | 1017.3 |
| 20260501233609 | 20 | 315 | 0.0 | 6.4 | 0.00 | 0.00 | 0.00 | 33 | 1017.3 |
| 20260501233110 | 20 | 314 | 1.6 | 9.7 | 0.00 | 0.00 | 0.00 | 31 | 1017.3 |
| 20260501232607 | 21 | 89 | 0.0 | 9.7 | 0.00 | 0.00 | 0.00 | 34 | 1017.3 |
| 20260501232100 | 21 | 29 | 0.0 | 6.4 | 0.00 | 0.00 | 0.00 | 30 | 1017.3 |
| 20260501231559 | 21 | 328 | 1.6 | 6.4 | 0.00 | 0.00 | 0.00 | 30 | 1017.4 |
| 20260501231100 | 21 | 99 | 0.0 | 6.4 | 0.00 | 0.00 | 0.00 | 31 | 1017.4 |
| 20260501230826 | 21 | 23 | 0.0 | 11.3 | 0.00 | 0.00 | 0.00 | 32 | 1017.5 |
| 20260501230055 | 21 | 165 | 1.6 | 11.3 | 0.00 | 0.00 | 0.00 | 30 | 1017.4 |
| 20260501225555 | 21 | 310 | 1.6 | 8.0 | 0.00 | 0.00 | 0.00 | 31 | 1017.5 |
| 20260501225050 | 21 | 315 | 0.0 | 11.3 | 0.00 | 0.00 | 0.00 | 32 | 1017.6 |
| 20260501224540 | 21 | 0 | 1.6 | 9.7 | 0.00 | 0.00 | 0.00 | 31 | 1017.6 |
| 20260501224043 | 21 | 242 | 0.0 | 14.5 | 0.00 | 0.00 | 0.00 | 30 | 1017.6 |
| 20260501223808 | 21 | 233 | 3.2 | 14.5 | 0.00 | 0.00 | 0.00 | 31 | 1017.7 |
| 20260501223043 | 21 | 317 | 1.6 | 4.8 | 0.00 | 0.00 | 0.00 | 31 | 1017.7 |
| 20260501222534 | 21 | 304 | 0.0 | 6.4 | 0.00 | 0.00 | 0.00 | 31 | 1017.8 |
| 20260501222021 | 21 | 311 | 1.6 | 6.4 | 0.00 | 0.00 | 0.00 | 31 | 1017.9 |
| 20260501221517 | 21 | 176 | 0.0 | 14.5 | 0.00 | 0.00 | 0.00 | 30 | 1017.9 |
| 20260501221219 | 21 | 78 | 0.0 | 6.4 | 0.00 | 0.00 | 0.00 | 33 | 1017.9 |
| 20260501221103 | 21 | 204 | 6.4 | 14.5 | 0.00 | 0.00 | 0.00 | 30 | 1018.2 |
| 20260501220008 | 21 | 321 | 1.6 | 12.9 | 0.00 | 0.00 | 0.00 | 32 | 1018.1 |
| 20260501215507 | 21 | 337 | 0.0 | 12.9 | 0.00 | 0.00 | 0.00 | 32 | 1018.2 |
| 20260501215002 | 21 | 319 | 1.6 | 6.4 | 0.00 | 0.00 | 0.00 | 33 | 1018.3 |
| 20260501214505 | 21 | 205 | 0.0 | 9.7 | 0.00 | 0.00 | 0.00 | 33 | 1018.4 |
| 20260501214001 | 21 | 21 | 1.6 | 9.7 | 0.00 | 0.00 | 0.00 | 30 | 1018.4 |
| 20260501213719 | 21 | 225 | 1.6 | 9.7 | 0.00 | 0.00 | 0.00 | 32 | 1018.3 |
| 20260501212953 | 21 | 102 | 1.6 | 9.7 | 0.00 | 0.00 | 0.00 | 31 | 1018.6 |
| 20260501212453 | 21 | 345 | 0.0 | 8.0 | 0.00 | 0.00 | 0.00 | 32 | 1018.7 |
| 20260501211953 | 21 | 281 | 1.6 | 8.0 | 0.00 | 0.00 | 0.00 | 33 | 1018.8 |
| 20260501211454 | 20 | 88 | 0.0 | 9.7 | 0.00 | 0.00 | 0.00 | 33 | 1018.7 |
| 20260501210949 | 20 | 117 | 1.6 | 14.5 | 0.00 | 0.00 | 0.00 | 32 | 1018.8 |
| 20260501210443 | 21 | 31 | 3.2 | 14.5 | 0.00 | 0.00 | 0.00 | 32 | 1018.8 |
| 20260501205946 | 21 | 148 | 0.0 | 14.5 | 0.00 | 0.00 | 0.00 | 32 | 1018.9 |
| 20260501205439 | 21 | 193 | 4.8 | 14.5 | 0.00 | 0.00 | 0.00 | 32 | 1019.1 |
| 20260501205204 | 20 | 265 | 0.0 | 6.4 | 0.00 | 0.00 | 0.00 | 34 | 1018.9 |
| 20260501204441 | 20 | 18 | 1.6 | 6.4 | 0.00 | 0.00 | 0.00 | 33 | 1018.9 |
| 20260501203940 | 20 | 69 | 0.0 | 11.3 | 0.00 | 0.00 | 0.00 | 32 | 1019.1 |
| 20260501203435 | 20 | 128 | 0.0 | 11.3 | 0.00 | 0.00 | 0.00 | 33 | 1019.1 |
| 20260501203153 | 20 | 221 | 1.6 | 12.9 | 0.00 | 0.00 | 0.00 | 34 | 1019.2 |
| 20260501202430 | 20 | 103 | 3.2 | 12.9 | 0.00 | 0.00 | 0.00 | 34 | 1019.1 |
| 20260501201936 | 20 | 24 | 0.0 | 16.1 | 0.00 | 0.00 | 0.00 | 36 | 1019.1 |
| 20260501201426 | 19 | 67 | 0.0 | 16.1 | 0.00 | 0.00 | 0.00 | 33 | 1019.2 |
| 20260501200925 | 19 | 206 | 3.2 | 14.5 | 0.00 | 0.00 | 0.00 | 34 | 1019.2 |
| 20260501200421 | 19 | 152 | 1.6 | 14.5 | 0.00 | 0.00 | 0.00 | 34 | 1019.2 |
| 20260501200140 | 19 | 111 | 0.0 | 9.7 | 0.00 | 0.00 | 0.00 | 36 | 1019.2 |
| 20260501195415 | 19 | 348 | 1.6 | 6.4 | 0.00 | 0.00 | 0.00 | 35 | 1019.3 |
| 20260501194916 | 19 | 95 | 3.2 | 6.4 | 0.00 | 0.00 | 0.00 | 35 | 1019.3 |
| 20260501194419 | 19 | 269 | 0.0 | 6.4 | 0.00 | 0.00 | 0.00 | 35 | 1019.4 |
| 20260501194139 | 19 | 319 | 1.6 | 6.4 | 0.00 | 0.00 | 0.00 | 35 | 1019.4 |
| 20260501193412 | 19 | 309 | 0.0 | 9.7 | 0.00 | 0.00 | 0.00 | 38 | 1019.5 |
| 20260501193140 | 19 | 249 | 1.6 | 12.9 | 0.00 | 0.00 | 0.00 | 35 | 1019.6 |
| 20260501192412 | 19 | 329 | 3.2 | 12.9 | 0.00 | 0.00 | 0.00 | 35 | 1019.6 |
| 20260501191912 | 19 | 46 | 0.0 | 11.3 | 0.00 | 0.00 | 0.00 | 38 | 1019.6 |
| 20260501191413 | 19 | 220 | 4.8 | 11.3 | 0.00 | 0.00 | 0.00 | 35 | 1019.7 |
| 20260501190908 | 19 | 0 | 1.6 | 9.7 | 0.00 | 0.00 | 0.00 | 36 | 1019.7 |
| 20260501190403 | 19 | 30 | 0.0 | 8.0 | 0.00 | 0.00 | 0.00 | 39 | 1019.6 |
| 20260501185905 | 19 | 239 | 1.6 | 9.7 | 0.00 | 0.00 | 0.00 | 37 | 1019.8 |
| 20260501185403 | 18 | 336 | 1.6 | 9.7 | 0.00 | 0.00 | 0.00 | 37 | 1019.8 |
| 20260501184905 | 18 | 349 | 3.2 | 16.1 | 0.00 | 0.00 | 0.00 | 36 | 1019.9 |
| 20260501184403 | 18 | 309 | 3.2 | 16.1 | 0.00 | 0.00 | 0.00 | 38 | 1019.9 |
| 20260501183904 | 18 | 344 | 0.0 | 9.7 | 0.00 | 0.00 | 0.00 | 37 | 1019.9 |
| 20260501183358 | 18 | 321 | 1.6 | 9.7 | 0.00 | 0.00 | 0.00 | 38 | 1020.1 |
| 20260501182854 | 18 | 106 | 3.2 | 8.0 | 0.00 | 0.00 | 0.00 | 38 | 1019.9 |
| 20260501182354 | 18 | 12 | 1.6 | 12.9 | 0.00 | 0.00 | 0.00 | 40 | 1020.1 |
| 20260501181854 | 17 | 346 | 1.6 | 12.9 | 0.00 | 0.00 | 0.00 | 42 | 1020.2 |
| 20260501181354 | 17 | 180 | 0.0 | 12.9 | 0.00 | 0.00 | 0.00 | 43 | 1020.2 |
| 20260501180856 | 17 | 226 | 1.6 | 12.9 | 0.00 | 0.00 | 0.00 | 44 | 1020.3 |
| 20260501180350 | 17 | 26 | 0.0 | 4.8 | 0.00 | 0.00 | 0.00 | 46 | 1020.4 |
| 20260501175853 | 16 | 352 | 0.0 | 4.8 | 0.00 | 0.00 | 0.00 | 47 | 1020.4 |
| 20260501175349 | 16 | 142 | 0.0 | 6.4 | 0.00 | 0.00 | 0.00 | 45 | 1020.5 |
| 20260501174851 | 16 | 83 | 0.0 | 6.4 | 0.00 | 0.00 | 0.00 | 47 | 1020.5 |
| 20260501174350 | 16 | 117 | 1.6 | 4.8 | 0.00 | 0.00 | 0.00 | 46 | 1020.5 |
| 20260501173850 | 15 | 149 | 0.0 | 4.8 | 0.00 | 0.00 | 0.00 | 47 | 1020.6 |
| 20260501173346 | 15 | 123 | 0.0 | 4.8 | 0.00 | 0.00 | 0.00 | 50 | 1020.6 |
| 20260501172846 | 15 | 66 | 1.6 | 3.2 | 0.00 | 0.00 | 0.00 | 50 | 1020.7 |
| 20260501172345 | 15 | 49 | 0.0 | 6.4 | 0.00 | 0.00 | 0.00 | 51 | 1020.8 |
| 20260501171846 | 15 | 125 | 0.0 | 6.4 | 0.00 | 0.00 | 0.00 | 53 | 1020.8 |
| 20260501171346 | 14 | 108 | 0.0 | 8.0 | 0.00 | 0.00 | 0.00 | 52 | 1021.0 |
| 20260501170846 | 14 | 163 | 1.6 | 8.0 | 0.00 | 0.00 | 0.00 | 52 | 1021.0 |
| 20260501170342 | 13 | 113 | 1.6 | 6.4 | 0.00 | 0.00 | 0.00 | 53 | 1021.0 |
| 20260501165342 | 13 | 129 | 0.0 | 6.4 | 0.00 | 0.00 | 0.00 | 55 | 1021.1 |
| 20260501165101 | 13 | 222 | 0.0 | 4.8 | 0.00 | 0.00 | 0.00 | 56 | 1021.1 |
| 20260501164337 | 12 | 128 | 1.6 | 4.8 | 0.00 | 0.00 | 0.00 | 56 | 1021.2 |
| 20260501163832 | 12 | 69 | 0.0 | 3.2 | 0.00 | 0.00 | 0.00 | 58 | 1021.3 |
| 20260501163332 | 12 | 51 | 0.0 | 6.4 | 0.00 | 0.00 | 0.00 | 59 | 1021.3 |
| 20260501163316 | 11 | 122 | 0.0 | 6.4 | 0.00 | 0.00 | 0.00 | 58 | 1021.3 |
| 20260501162327 | 11 | 268 | 0.0 | 9.7 | 0.00 | 0.00 | 0.00 | 59 | 1021.4 |
| 20260501161830 | 11 | 111 | 0.0 | 9.7 | 0.00 | 0.00 | 0.00 | 59 | 1021.4 |
| 20260501161326 | 11 | 165 | 0.0 | 3.2 | 0.00 | 0.00 | 0.00 | 62 | 1021.4 |
| 20260501160824 | 11 | 167 | 0.0 | 6.4 | 0.00 | 0.00 | 0.00 | 63 | 1021.5 |
| 20260501160323 | 10 | 167 | 1.6 | 6.4 | 0.00 | 0.00 | 0.00 | 62 | 1021.6 |
| 20260501155814 | 10 | 165 | 0.0 | 3.2 | 0.00 | 0.00 | 0.00 | 64 | 1021.6 |
| 20260501155532 | 10 | 165 | 0.0 | 4.8 | 0.00 | 0.00 | 0.00 | 65 | 1021.7 |